Simultaneous Nadir Overpasses (SNOs) Predictions

Prediction of SNOs between NPP and TERRA Satellite Orbit:

Table of predicted SNOs for the next 14.0 days since TLE Epoch: 10/14/2012
Index Date (NPP) Time (NPP) Lat,Lon (NPP) SZA (NPP ) Date (TERRA) Time (TERRA) Lat,Lon (TERRA) SZA (TERRA ) Distance(km) Time Diff (sec)
1 10/14/2012 11:27:56 -69.07,-174.74 102.66 10/14/2012 11:29:04 -68.99,-172.93 102.72 72.89 68
2 10/14/2012 12:18:26 68.19, -6.28 76.49 10/14/2012 12:18:43 68.21, -6.24 76.51 2.80 17
3 10/14/2012 13:09:07 -68.05, 161.22 103.64 10/14/2012 13:08:14 -68.05, 161.21 103.65 0.56 53
4 10/17/2012 03:44:39 -68.30, -57.97 102.43 10/17/2012 03:45:49 -68.28, -57.94 102.45 3.12 70
5 10/17/2012 04:35:22 68.13, 109.56 77.41 10/17/2012 04:35:17 68.11, 109.51 77.39 2.76 5
6 10/17/2012 05:26:01 -67.88, -82.81 102.83 10/17/2012 05:24:49 -67.90, -83.11 102.81 12.87 72
7 10/19/2012 20:01:36 -68.21, 57.91 101.56 10/19/2012 20:02:26 -68.22, 57.84 101.54 3.08 50
8 10/19/2012 20:52:20 68.08,-134.63 78.34 10/19/2012 20:51:53 68.11,-134.64 78.36 2.71 27
9 10/19/2012 21:42:46 -67.13, 33.84 102.59 10/19/2012 21:41:38 -67.18, 31.93 102.58 82.83 68
10 10/22/2012 11:28:12 69.30, 4.88 80.47 10/22/2012 11:29:18 69.24, 7.32 80.45 96.56 66
11 10/22/2012 12:18:35 -68.18, 173.69 100.63 10/22/2012 12:19:05 -68.20, 173.66 100.61 2.22 30
12 10/22/2012 13:09:19 68.06, -18.85 79.27 10/22/2012 13:08:32 68.09, -18.83 79.29 2.82 47
13 10/25/2012 03:45:01 68.71, 121.43
